This demonstration page uses our WeatherBlox Daily Observations layout. Learn more.

Left ArrowRight Arrow

34.74481, -87.66753

Hourly Observations for June 23, 2019

Temp ( °F °C ) Dew Point ( °F °C ) Humidity (%) Winds ( mph kmh ) Pressure ( in mb ) Visibility ( mi km ) Precip ( " mm )
12:53 am 00:53 Clear 72 22.2 67 19.4 84 84 Calm 30.00 1016 10 16 0.00 0.00
1:53 am 01:53 Clear 72 22.2 68 20 87 87 undefined N/A 30.01 1016 10 16 0.00 0.00
2:53 am 02:53 Clear 72 22.2 68 20 87 87 SE 7 11 30.01 1016 10 16 0.00 0.00
3:53 am 03:53 Clear 72 22.2 67 19.4 84 84 E 5 7 30.02 1017 10 16 0.00 0.00
4:53 am 04:53 Clear 72 22.2 68 20 87 87 SE 6 9 30.02 1017 10 16 0.00 0.00
5:53 am 05:53 Mostly Sunny 71 21.7 68 20 90 90 Calm 30.04 1017 10 16 0.00 0.00
6:06 am 06:06 Mostly Cloudy 72 22.2 68 20 87 87 SSE 3 6 30.04 1017 10 16 0.00 0.00
6:39 am 06:39 Cloudy 73 22.8 68 20 84 84 SE 3 6 30.04 1017 10 16 0.00 0.00
6:53 am 06:53 Mostly Cloudy 73 22.8 68 20 84 84 SSE 6 9 30.04 1017 10 16 0.00 0.00
7:53 am 07:53 Mostly Sunny 76 24.4 69 20.6 79 79 SSE 7 11 30.05 1018 10 16 0.00 0.00
8:10 am 08:10 Mostly Cloudy 76 24.4 69 20.6 79 79 SE 6 9 30.06 1018 10 16 0.00 0.00
8:53 am 08:53 Cloudy 78 25.6 71 21.7 79 79 S 7 11 30.06 1018 10 16 0.00 0.00
9:30 am 09:30 Partly Cloudy 81 27.2 73 22.8 77 77 S 6 9 30.04 1017 10 16 0.00 0.00
9:53 am 09:53 Partly Cloudy 82 27.8 74 23.3 77 77 S 7 11 30.04 1017 10 16 0.00 0.00
10:53 am 10:53 Partly Cloudy 86 30 74 23.3 67 67 S 8 13 30.03 1017 10 16 0.00 0.00
12:53 pm 12:53 Sunny 92 33.3 73 22.8 54 54 WSW 14 22 30.01 1016 10 16 0.00 0.00
1:53 pm 13:53 Mostly Sunny 92 33.3 71 21.7 51 51 SSW 12 19 29.99 1016 10 16 0.00 0.00
2:53 pm 14:53 Mostly Sunny 92 33.3 72 22.2 52 52 SSW 14 22 29.96 1015 10 16 0.00 0.00
3:53 pm 15:53 Partly Cloudy 92 33.3 70 21.1 49 49 SW 17 28 29.93 1014 10 16 0.00 0.00
4:53 pm 16:53 Mostly Sunny 93 33.9 70 21.1 47 47 SSW 15 24 29.90 1013 10 16 0.00 0.00
5:53 pm 17:53 Sunny 92 33.3 70 21.1 49 49 SW 13 20 29.89 1012 10 16 0.00 0.00
6:53 pm 18:53 Sunny 90 32.2 70 21.1 52 52 SSW 8 13 29.89 1012 10 16 0.00 0.00
7:53 pm 19:53 Partly Cloudy 87 30.6 71 21.7 59 59 S 6 9 29.89 1012 10 16 0.00 0.00
8:53 pm 20:53 Clear 84 28.9 71 21.7 65 65 S 7 11 29.90 1013 10 16 0.00 0.00
9:53 pm 21:53 Clear 83 28.3 72 22.2 70 70 undefined N/A 29.92 1013 10 16 0.00 0.00
10:53 pm 22:53 Mostly Cloudy 80 26.7 70 21.1 71 71 VRB 3 6 29.92 1013 10 16 0.00 0.00
11:53 pm 23:53 Partly Cloudy 77 25 71 21.7 82 82 Calm 29.92 1013 10 16 0.00 0.00

Powered by AerisWeather